Regional Weather Roundup
Issued by NWS

Home | Current Version | Previous Version | Graphics & Text | Print | Product List | Glossary On
Versions: 1 2 3 4 5 6 7 8 9 10 11 12 13 14 15 16 17 18 19 20 21 22 23 24 25 26 27 28 29 30 31 32 33 34 35 36 37 38 39 40 41 42 43 44 45 46 47 48 49 50
000
ASUS43 KMPX 260801
RWRMN
WEATHER ROUNDUP FOR MINNESOTA
NATIONAL WEATHER SERVICE TWIN CITIES/CHANHASSEN MN
300 AM CDT SUN MAR 26 2017


NOTE: "FAIR" INDICATES FEW OR NO CLOUDS BELOW 12,000 FEET WITH NO
SIGNIFICANT WEATHER AND/OR OBSTRUCTIONS TO VISIBILITY. N/A MEANS
CURRENT SKY AND/OR WEATHER CONDITIONS ARE NOT AVAILABLE.

MNZ060>063-068>070-260900-
   Twin Cities Metro

CITY           SKY/WX    TMP DP  RH WIND       PRES   REMARKS
TWIN CITIES    DRIZZLE   37  34  89 E7        29.98F
ST PAUL        LGT RAIN  37  36  96 E7        29.99F FOG
CRYSTAL        LGT RAIN  37  33  85 E7        29.97F
BLAINE         CLOUDY    37  37 100 E8        29.98F
LAKEVILLE      CLOUDY    34  34 100 E6        29.97F FOG     WCI  29
EDEN PRAIRIE   CLOUDY    38  35  89 E8        29.96F
SOUTH ST PAUL  LGT RAIN  37  36  95 E5        29.98F
LAKE ELMO      MIX PCPN  36  36 100 E6        29.99F
$$
MNZ001>005-007-008-013>017-022>024-027-028-260900-
   Northwest Minnesota

CITY           SKY/WX    TMP DP  RH WIND       PRES   REMARKS
BEMIDJI        CLOUDY    31  28  91 SE3       30.01S
HALLOCK        CLOUDY    34  32  93 S9        29.98S WCI  26
ROSEAU         PTCLDY    34  28  80 S7        30.00S WCI  28
WARROAD        CLOUDY    32  28  86 S7        30.01S WCI  26
THIEF RVR FALL   N/A     32  31  96 E5        30.01F FOG     WCI  27
CROOKSTON      PTCLDY    34  32  93 SE3       30.01F FOG
FOSSTON        CLOUDY    28  27  93 CALM      30.01S
DETROIT LAKES  CLOUDY    34  32  93 SE5       30.00S WCI  30
MOORHEAD       CLOUDY    34  30  86 CALM      30.01S
PARK RAPIDS    CLOUDY    33  27  78 SE5       29.99F WCI  29
MAHNOMEN       CLOUDY    32  29  88 SE3       30.00S
$$
MNZ006-009>011-018-025>026-260900-
   North Central Minnesota

CITY           SKY/WX    TMP DP  RH WIND       PRES   REMARKS
BAUDETTE       CLOUDY    29  26  89 SE5       30.02S WCI  24
FLAG ISLAND    CLOUDY    30  28  93 S15       30.00F WCI  19
INTL FALLS     CLOUDY    31  27  85 VRB6      30.04F WCI  25
WASKISH        CLOUDY    32  28  86 SE5       30.02F WCI  27
BIG FORK       CLOUDY    32  30  93 SE5       30.03F WCI  27
LONGVILLE      CLOUDY    32  30  93 CALM      30.02F FOG
GRAND RAPIDS   CLOUDY    31  30  96 CALM      30.05F FOG
CRANE LAKE     CLOUDY    28  28 100 CALM      30.07F
ORR            CLOUDY    30  27  86 CALM      30.02F
COOK           CLOUDY    30  28  93 CALM      30.05F
WALKER         CLOUDY    31  29  92 CALM      30.01F
$$
MNZ012-019>021-037-260900-
   Northeast Minnesota

CITY           SKY/WX    TMP DP  RH WIND       PRES   REMARKS
DULUTH         FOG       31  31 100 E12       30.02F VSB 3/4 WCI  22
ELY            CLOUDY    30  28  93 CALM      30.05F
HIBBING        CLOUDY    30  29  96 E3        30.03F
EVELETH        CLOUDY    32  30  92 NE3       30.05F FOG
DULUTH HARBOR  CLOUDY    34  32  93 NE13      30.07S WCI  25
TWO HARBORS    CLOUDY    34  28  80 NE7       30.02F WCI  28
SILVER BAY     CLOUDY    32  30  93 NE6       30.03F WCI  26
GRAND MARAIS     N/A     35  28  75 NE9G17    30.10F WCI  28
G MARAIS ARPRT CLOUDY    28  21  74 E6        30.05F WCI  22
$$
MNZ029>031-032-039>041-046>048-054>057-064-260900-
   West Central Minnesota

CITY           SKY/WX    TMP DP  RH WIND       PRES   REMARKS
FERGUS FALLS   CLOUDY    36  30  80 CALM      30.03S
WHEATON        CLOUDY    36  34  93 CALM      30.01S
MORRIS         MOCLDY    36  36 100 CALM      29.98S
ALEXANDRIA     CLOUDY    37  31  78 E6        29.98F
ELBOW LAKE     CLOUDY    36  36  97 CALM      29.99F
WADENA         CLOUDY    34  28  80 E3        30.00S
GLENWOOD       MOCLDY    36  34  93 E3        29.98F
APPLETON       CLOUDY    37  36  93 CALM      29.98F
BENSON         CLOUDY    39  34  81 SE3       29.99F
ORTONVILLE     CLOUDY    36  34  93 E3        29.98F FOG
MADISON        CLOUDY    39  39 100 CALM      29.98F FOG
WILLMAR        CLOUDY    39  36  87 E5        29.98F
$$
MNZ033>034-036-042>043-049>051-058-059-260900-
   Central Minnesota

CITY           SKY/WX    TMP DP  RH WIND       PRES   REMARKS
ST CLOUD       CLOUDY    35  30  82 NE6       29.98F WCI  30
SAUK CENTRE    CLOUDY    36  31  83 NE5       29.99S
PAYNESVILLE      N/A     37  34  88 CALM      29.98F
AITKIN         CLOUDY    36  28  75 NE3       30.00F
PINE RIVER     CLOUDY    34  30  86 E5        30.04F WCI  30
BRAINERD       CLOUDY    33  29  85 NE5       30.01F WCI  29
STAPLES        CLOUDY    34  28  80 E3        30.00F
LONG PRAIRIE   CLOUDY    34  30  86 N5        29.99F WCI  30
LITTLE FALLS   CLOUDY    34  30  86 CALM      30.00F
LITCHFIELD     CLOUDY    39  36  87 E8        29.97S
BUFFALO        CLOUDY    37  35  92 E6        29.98F
MAPLE LAKE     CLOUDY    38  37  96 E8        29.98F
HUTCHINSON     CLOUDY    37  37  98 NE5       29.97F
$$
MNZ037-044-045-052-053-260900-
   East Central Minnesota

CITY           SKY/WX    TMP DP  RH WIND       PRES   REMARKS
PRINCETON      DRIZZLE   36  32  87 NE5       29.99F
MORA           CLOUDY    34  30  86 E3        30.02F
CAMBRIDGE      DRIZZLE   36  30  80 CALM      29.98F
RUSH CITY      DRIZZLE   33  32  94 NE5       30.00F WCI  29
MOOSE LAKE     CLOUDY    32  30  93 NE3       30.00F
CLOQUET        CLOUDY    32  30  93 E6        30.02F FOG     WCI  26
MCGREGOR       CLOUDY    32  32 100 E7        30.02F WCI  26
$$
MNZ071>073-080-081-089-090-097-098-260900-
   Southwest Minnesota

CITY           SKY/WX    TMP DP  RH WIND       PRES   REMARKS
MONTEVIDEO     CLOUDY    36  36 100 CALM      29.99F
GRANITE FALLS  CLOUDY    38  37  93 CALM      29.99S
CANBY          CLOUDY    37  37  98 CALM      29.98F FOG
MARSHALL       CLOUDY    36  35  96 N3        29.96F
REDWOOD FALLS  CLOUDY    39  34  82 E5        29.95F
OLIVIA         CLOUDY    36  34  93 CALM      29.96F
PIPESTONE      CLOUDY    36  34  93 E3        29.92F FOG
WINDOM         CLOUDY    36  36 100 NE5       29.93F FOG
WORTHINGTON    FOG       35  35 100 N6        29.93F VSB 1/2 WCI  30
JACKSON        DRIZZLE   36  36 100 NE8       29.92F
TRACY          CLOUDY    37  37  97 CALM      29.95F FOG
SLAYTON        FOG       35  35 100 E6        29.94F VSB 1/2 WCI  30
$$
MNZ065>067-074>077-082>085-091>093-260900-
   South Central Minnesota

CITY           SKY/WX    TMP DP  RH WIND       PRES   REMARKS
MANKATO        CLOUDY    37  35  92 E8        29.95F
NEW ULM        RAIN      37  36  93 E5        29.94F
ST JAMES       DRIZZLE   36  36 100 CALM      29.95F
FAIRMONT       CLOUDY    37  36  96 NE8       29.93F
GLENCOE        CLOUDY    38  38 100 E6        29.95F
FARIBAULT      CLOUDY    36  36 100 NE7       29.95F
OWATONNA       CLOUDY    36  34  93 NE8       29.93F FOG
WASECA         CLOUDY    36  36 100 NE13      29.94F FOG
ALBERT LEA     CLOUDY    36  36 100 NE7       29.91F
$$
MNZ078>079-086>088-094>096-260900-
   Southeast Minnesota

CITY           SKY/WX    TMP DP  RH WIND       PRES   REMARKS
ROCHESTER      FOG       34  34 100 NE10      29.92F VSB 3/4 WCI  26
RED WING       CLOUDY    36  34  93 E3        29.96F FOG
STANTON        CLOUDY    37  34  92 NE7       29.95F
DODGE CENTER   FOG       34  34 100 NE9       29.93F VSB 1/2 WCI  26
WINONA         CLOUDY    36  36 100 E5        29.97F
AUSTIN         FOG       36  34  93 NE7       29.91F VSB 1
PRESTON        FOG       34  33  97 NE6       29.92F VSB 1/2 WCI  29
$$
ABBREVIATIONS USED IN REMARKS
   TC - TEMPERATURES IN CELSIUS
  WCI - WIND CHILL INDEX
   HX - HEAT INDEX
  VSB - VISIBILITY
$$




USA.gov is the U.S. government's official web portal to all federal, state and local government web resources and services.